Epoch 2009 Oct. 16.0 TT = JDT 2455120.5 T 2009 Oct. 1.53704 TT MPC q 2.9831547 (2000.0) P Q n 0.10382870 Peri. 53.42959 -0.31338530 -0.92615674 a 4.4832310 Node 56.14440 +0.77042710 -0.37713840 e 0.3345971 Incl. 14.63479 +0.55518622 +0.00056510 P 9.49
m1 = 4.0 + 5 logΔ + 25 log r